Location: Newark
(12.4436°N, 0.6167°W)
Time: 11:28:15
(UTC+00:00)

Vanguard 1 - Pass Details

Date: 18 December 2019
Orbit: 651 x 3833 km, 34.2° (Epoch: 24 January)

Event Time Altitude Azimuth Distance (km) Brightness Sun altitude
Rises 22:48:57 0° 223° (SW) 4,806 13.9 -70.1°
Enters shadow 22:50:34 - 221° (SW) 4,383 13.6 -70.4°
Reaches altitude 10° 22:51:34 10° 219° (SW) 4,135 - -70.6°
Maximum altitude 23:03:33 66° 139° (SE) 2,870 - -72.8°
Drops below altitude 10° 23:24:29 10° 61° (ENE) 6,781 - -76.3°
Exits shadow 23:29:29 - 60° (ENE) 7,795 14.5 -77.0°
Sets 23:30:14 0° 59° (ENE) 7,946 14.6 -77.1°
